Weather History for Wenatchee, WA

Change the Weather History Date:

Thursday, March 22, 2012

  Actual Average Record
Temperature  
Mean Temperature 31 °F 41 °F  
Max Temperature 34 °F 50 °F 71 °F (1978)
Min Temperature 28 °F 31 °F 17 °F (2014)
Degree Days  
Heating Degree Days 34 24  
Month to date heating degree days 623 602  
Since 1 July heating degree days 5723 5801  
Cooling Degree Days 0 0  
Month to date cooling degree days 0 0  
Year to date cooling degree days 0 0  
Moisture  
Dew Point 28 °F    
Average Humidity 74    
Maximum Humidity 93    
Minimum Humidity 30    
Precipitation  
Precipitation 0.27 in 0.06 in 0.44 in (2009)
Month to date precipitation 1.82 1.20  
Year to date precipitation 5.33 4.53  
Snow  
Snow 3.40 in 0.20 in - ()
Month to date snowfall 7.4 3.7  
Since 1 July snowfall 34.9 50.1  
Snow Depth 3.00 in    
Sea Level Pressure  
Sea Level Pressure 29.89 in    
Wind  
Wind Speed 3 mph (NW)    
Max Wind Speed 12 mph    
Max Gust Speed -    
Visibility 8 miles    
Events Snow    
T = Trace of Precipitation, MM = Missing Value Source: NWS Daily Summary

Daily Weather History Graph

Daily Weather History Graph

Search for Another Location

Airport:

Trip Planner

Search our weather history database for the weather conditions in past years. The results will help you decide how hot, cold, wet, or windy it might be!

Date:

Astronomy

Mar. 22, 2012 Rise Set
Actual Time 6:58 AM PDT 7:17 PM PDT
Civil Twilight 6:27 AM PDT 7:47 PM PDT
Nautical Twilight 5:51 AM PDT 8:24 PM PDT
Astronomical Twilight 5:14 AM PDT 9:01 PM PDT
Moon 6:36 AM PDT (3/22) 7:52 PM PDT (3/22)
Length of Visible Light 13h 20m
Length of Day
12h 18m
New Moon, 0% of the Moon is Illuminated
Mar 22
New Moon
Mar 30
First Quarter
Apr 6
Full
Apr 13
Last Quarter
Apr 21
New

Hourly Weather History & Observations

Time (PDT) Temp. Windchill Dew Point Humidity Pressure Visibility Wind Dir Wind Speed Gust Speed Precip Events Conditions
12:36 AM 33.8 °F - 30.2 °F 87% 29.80 in 3.0 mi Calm Calm - 0.00 in Snow Light Snow
12:55 AM 33.1 °F - 30.9 °F 92% 29.82 in 5.0 mi Calm Calm - 0.00 in Snow Light Snow
1:11 AM 33.8 °F 30.8 °F 30.2 °F 87% 29.78 in 2.5 mi NNW 3.5 mph - 0.00 in Snow Light Snow
1:27 AM 33.8 °F - 30.2 °F 87% 29.78 in 3.0 mi Calm Calm - 0.00 in Snow Light Snow
1:55 AM 33.1 °F 27.7 °F 30.9 °F 92% 29.81 in 4.0 mi West 5.8 mph - 0.00 in Snow Light Snow
2:06 AM 33.8 °F 28.6 °F 30.2 °F 87% 29.79 in 2.5 mi WNW 5.8 mph - 0.00 in Snow Light Snow
2:24 AM 33.8 °F 28.6 °F 30.2 °F 87% 29.77 in 3.0 mi NW 5.8 mph - 0.00 in Snow Light Snow
2:37 AM 33.8 °F 28.6 °F 30.2 °F 87% 29.77 in 2.5 mi NW 5.8 mph - 0.01 in Snow Light Snow
2:41 AM 33.8 °F 27.7 °F 30.2 °F 87% 29.77 in 3.0 mi NW 6.9 mph - 0.01 in Snow Light Snow
2:55 AM 33.1 °F 26.9 °F 30.0 °F 89% 29.80 in 4.0 mi WNW 6.9 mph - 0.01 in Snow Light Snow
3:55 AM 33.1 °F 27.7 °F 30.9 °F 92% 29.80 in 2.5 mi West 5.8 mph - 0.00 in Snow Light Snow
4:24 AM 33.8 °F 29.6 °F 30.2 °F 87% 29.78 in 3.0 mi WNW 4.6 mph - 0.00 in Snow Light Snow
4:55 AM 33.1 °F 28.7 °F 30.0 °F 89% 29.79 in 8.0 mi NW 4.6 mph - 0.00 in Snow Light Snow
5:55 AM 33.1 °F 28.7 °F 30.0 °F 89% 29.83 in 9.0 mi WNW 4.6 mph - 0.00 in   Overcast
6:55 AM 32.0 °F 27.5 °F 28.9 °F 88% 29.86 in 10.0 mi NW 4.6 mph - N/A   Clear
7:30 AM 30.2 °F - 28.4 °F 93% 29.86 in 10.0 mi Calm Calm - N/A   Partly Cloudy
7:45 AM 30.2 °F - 28.4 °F 93% 29.87 in 10.0 mi Calm Calm - N/A   Mostly Cloudy
8:36 AM 32.0 °F 27.5 °F 28.4 °F 87% 29.90 in 10.0 mi NNE 4.6 mph - N/A   Mostly Cloudy
8:55 AM 34.0 °F - 30.0 °F 85% 29.94 in 10.0 mi Calm Calm - N/A   Partly Cloudy
9:55 AM 37.0 °F - 30.0 °F 76% 29.96 in 10.0 mi Calm Calm - N/A   Clear
10:55 AM 39.0 °F 36.8 °F 30.9 °F 73% 29.99 in 10.0 mi WNW 3.5 mph - N/A   Clear
11:55 AM 44.1 °F 39.5 °F 25.0 °F 47% 30.01 in 10.0 mi NW 8.1 mph - N/A   Clear
12:55 PM 46.9 °F - 21.9 °F 37% 30.00 in 10.0 mi WNW 11.5 mph - N/A   Clear
1:55 PM 48.0 °F - 19.9 °F 33% 29.99 in 10.0 mi Calm Calm - N/A   Clear
2:55 PM 48.9 °F - 21.0 °F 33% 29.97 in 10.0 mi North 5.8 mph - N/A   Clear
3:55 PM 48.9 °F - 21.9 °F 35% 29.96 in 10.0 mi SW 5.8 mph - N/A   Overcast
4:55 PM 48.0 °F - 18.0 °F 30% 29.96 in 10.0 mi Calm Calm - N/A   Mostly Cloudy
5:55 PM 46.9 °F - 27.0 °F 46% 29.97 in 10.0 mi ESE 10.4 mph - N/A   Mostly Cloudy
6:55 PM 44.1 °F 40.8 °F 30.9 °F 60% 29.98 in 10.0 mi East 5.8 mph - N/A   Mostly Cloudy
7:55 PM 43.0 °F - 28.9 °F 58% 29.98 in 10.0 mi Calm Calm - N/A   Clear
8:55 PM 37.9 °F 34.4 °F 30.0 °F 73% 29.96 in 10.0 mi Variable 4.6 mph - N/A   Clear
9:55 PM 37.0 °F 31.0 °F 30.0 °F 76% 29.99 in 10.0 mi NW 8.1 mph - N/A   Clear
10:55 PM 35.1 °F 31.0 °F 28.9 °F 78% 29.99 in 10.0 mi SE 4.6 mph - N/A   Scattered Clouds
11:55 PM 36.0 °F - 28.9 °F 76% 29.97 in 10.0 mi Calm Calm - N/A   Scattered Clouds